Weather History for Limnos, Greece

Change the Weather History Date:

Monday, January 28, 2013

  Actual Average Record
Temperature  
Mean Temperature 42 °F -  
Max Temperature 48 °F 52 °F 60 °F (2001)
Min Temperature 37 °F 40 °F 28 °F (2000)
Degree Days  
Heating Degree Days 22    
Moisture  
Dew Point 38 °F    
Average Humidity 80    
Maximum Humidity 87    
Minimum Humidity 60    
Precipitation  
Precipitation 0.00 in 0.06 in - ()
Sea Level Pressure  
Sea Level Pressure 29.97 in    
Wind  
Wind Speed 4 mph ()    
Max Wind Speed 15 mph    
Max Gust Speed -    
Visibility 6.2 miles    
Events Rain    
Averages and records for this station are not official NWS values.
T = Trace of Precipitation, MM = Missing Value Source: Averaged Metar Reports

Daily Weather History Graph

Daily Weather History Graph

Search for Another Location

Airport:

Trip Planner

Search our weather history database for the weather conditions in past years. The results will help you decide how hot, cold, wet, or windy it might be!

Date:

Astronomy

Jan. 28, 2013 Rise Set
Actual Time 7:30 AM EET 5:33 PM EET
Civil Twilight 7:02 AM EET 6:02 PM EET
Nautical Twilight 6:29 AM EET 6:35 PM EET
Astronomical Twilight 5:57 AM EET 7:06 PM EET
Moon 7:08 PM EET (1/28) 7:46 AM EET (1/28)
Length of Visible Light 11h 00m
Length of Day
10h 02m
Full, 98% of the Moon is Illuminated
Jan 28
Full
Feb 3
Last Quarter
Feb 10
New
Feb 17
First Quarter
Feb 25
Full

Hourly Weather History & Observations

Time (EET) Temp. Windchill Dew Point Humidity Pressure Visibility Wind Dir Wind Speed Gust Speed Precip Events Conditions
12:20 AM 37.4 °F 33.8 °F 33.8 °F 87% 29.98 in - ENE 4.6 mph - N/A   Unknown
12:50 AM 37.4 °F 33.8 °F 33.8 °F 87% 29.98 in - East 4.6 mph - N/A   Unknown
1:20 AM 37.4 °F - 33.8 °F 87% 29.98 in - Variable 2.3 mph - N/A   Unknown
1:50 AM 37.4 °F 34.9 °F 33.8 °F 87% 29.98 in - Variable 3.5 mph - N/A   Unknown
2:00 AM 38 °F - 34 °F 80% 29.99 in 6 mi 3.5 mph - -   Partly Cloudy
2:20 AM 37.4 °F - 32.0 °F 81% 29.98 in - Variable 1.2 mph - N/A   Unknown
2:50 AM 37.4 °F 34.9 °F 33.8 °F 87% 29.98 in - Variable 3.5 mph - N/A   Unknown
3:20 AM 39.2 °F 33.6 °F 35.6 °F 87% 29.95 in - ENE 8.1 mph - N/A   Unknown
3:50 AM 39.2 °F 37.0 °F 35.6 °F 87% 29.98 in - Variable 3.5 mph - N/A   Unknown
4:20 AM 39.2 °F 37.0 °F 35.6 °F 87% 29.98 in - Variable 3.5 mph - N/A   Unknown
4:50 AM 41.0 °F 37.1 °F 35.6 °F 81% 29.95 in - ENE 5.8 mph - N/A   Unknown
5:20 AM 41.0 °F 38.0 °F 35.6 °F 81% 29.95 in - East 4.6 mph - N/A   Unknown
5:50 AM 41.0 °F 39.0 °F 37.4 °F 87% 29.95 in 6.2 mi Variable 3.5 mph - N/A   Mostly Cloudy
6:20 AM 41.0 °F 37.1 °F 37.4 °F 87% 29.95 in 6.2 mi ENE 5.8 mph - N/A   Mostly Cloudy
6:50 AM 41.0 °F 39.0 °F 35.6 °F 81% 29.95 in 6.2 mi Variable 3.5 mph - N/A   Scattered Clouds
7:20 AM 41.0 °F 39.0 °F 37.4 °F 87% 29.95 in 6.2 mi Variable 3.5 mph - N/A   Scattered Clouds
7:50 AM 41.0 °F 36.4 °F 37.4 °F 87% 29.95 in 6.2 mi ENE 6.9 mph - N/A   Scattered Clouds
8:00 AM 41 °F - 37 °F 82% 29.97 in 6 mi ENE 6.9 mph - -   Scattered Clouds
8:20 AM 42.8 °F 41.1 °F 37.4 °F 81% 29.95 in 6.2 mi Variable 3.5 mph - N/A   Scattered Clouds
8:50 AM 44.6 °F - 39.2 °F 81% 29.98 in 6.2 mi NE 2.3 mph - N/A   Scattered Clouds
9:20 AM 44.6 °F - 39.2 °F 81% 29.98 in 6.2 mi Variable 2.3 mph - N/A   Scattered Clouds
9:50 AM 46.4 °F 42.4 °F 39.2 °F 76% 29.95 in 6.2 mi ESE 8.1 mph - N/A   Mostly Cloudy
10:20 AM 46.4 °F 42.4 °F 39.2 °F 76% 29.95 in 6.2 mi East 8.1 mph - N/A   Mostly Cloudy
10:50 AM 48.2 °F - 39.2 °F 71% 29.95 in 6.2 mi ESE 6.9 mph - N/A   Mostly Cloudy
11:20 AM 48.2 °F - 39.2 °F 71% 29.95 in 6.2 mi ESE 6.9 mph - N/A   Mostly Cloudy
11:50 AM 48.2 °F - 39.2 °F 71% 29.95 in 6.2 mi East 5.8 mph - N/A   Mostly Cloudy
12:50 PM 48.2 °F - 39.2 °F 71% 29.95 in 6.2 mi East 5.8 mph - N/A   Mostly Cloudy
1:20 PM 48.2 °F - 39.2 °F 71% 29.92 in 6.2 mi East 4.6 mph - N/A   Mostly Cloudy
1:50 PM 48.2 °F - 39.2 °F 71% 29.92 in 6.2 mi Variable 3.5 mph - N/A Rain Light Rain
2:00 PM 48 °F - 38 °F 60% 29.94 in 6 mi 3.5 mph - - Rain Light Rain
2:20 PM 48.2 °F - 39.2 °F 71% 29.92 in 6.2 mi Variable 3.5 mph - N/A   Overcast
2:50 PM 48.2 °F - 39.2 °F 71% 29.92 in 6.2 mi Variable 3.5 mph - N/A   Overcast
3:20 PM 48.2 °F - 41.0 °F 76% 29.92 in 6.2 mi SE 6.9 mph - N/A   Overcast
3:50 PM 48.2 °F - 41.0 °F 76% 29.92 in 6.2 mi SE 6.9 mph - N/A   Mostly Cloudy
4:20 PM 48.2 °F - 41.0 °F 76% 29.92 in 6.2 mi SE 4.6 mph - N/A   Mostly Cloudy
4:50 PM 48.2 °F - 41.0 °F 76% 29.92 in 6.2 mi Calm Calm - N/A   Mostly Cloudy
5:20 PM 46.4 °F - 41.0 °F 81% 29.95 in 6.2 mi Calm Calm - N/A   Mostly Cloudy
5:50 PM 46.4 °F - 41.0 °F 81% 29.95 in 6.2 mi Calm Calm - N/A   Mostly Cloudy
6:20 PM 46.4 °F - 41.0 °F 81% 29.95 in 6.2 mi Calm Calm - N/A   Mostly Cloudy
6:50 PM 46.4 °F - 41.0 °F 81% 29.98 in 6.2 mi Calm Calm - N/A   Mostly Cloudy
7:20 PM 42.8 °F - 39.2 °F 87% 29.98 in 6.2 mi Calm Calm - N/A   Mostly Cloudy
7:50 PM 42.8 °F - 39.2 °F 87% 29.98 in 6.2 mi Calm Calm - N/A   Mostly Cloudy
8:00 PM 42 °F - 39 °F 86% 29.99 in 6 mi Calm Calm - -   Partly Cloudy
8:20 PM 44.6 °F 40.7 °F 41.0 °F 87% 29.98 in - NE 6.9 mph - N/A   Unknown
8:50 PM 44.6 °F 40.7 °F 41.0 °F 87% 30.01 in - ENE 6.9 mph - N/A   Unknown
9:20 PM 44.6 °F 42.2 °F 39.2 °F 81% 30.01 in - NE 4.6 mph - N/A   Unknown
9:50 PM 44.6 °F 42.2 °F 39.2 °F 81% 30.01 in - ENE 4.6 mph - N/A   Unknown
10:20 PM 46.4 °F 41.9 °F 41.0 °F 81% 30.01 in - ENE 9.2 mph - N/A   Unknown
10:50 PM 46.4 °F 41.1 °F 41.0 °F 81% 30.04 in - ENE 11.5 mph - N/A   Unknown
11:20 PM 44.6 °F 37.8 °F 39.2 °F 81% 30.04 in - ENE 15.0 mph - N/A   Unknown
11:50 PM 44.6 °F 38.4 °F 39.2 °F 81% 30.04 in - ENE 12.7 mph - N/A   Unknown